When you browse on this site, cookies collect data to enhance your experience and personalize the content and advertising you see.
Visit our Privacy Policy to learn more. By continuing to use the site, you agree to this use of cookies and data.
  • In Hungary
  • List of Countries
  • For 7 days
  • Water Temperature
  • Satellite Maps
  • Weather Map
  • News
  • Weather Widgets
  • user-avatar
    Login

    Hourly Weather Mugri

    Today, 20 November, Tuesday

    Time Temperature Precipitation Wind Pressure Humidity
    00:00 +1°C° 0 mm 2 mps 665 mmHg 56%
    01:00 +1°C° 0 mm 3 mps 665 mmHg 53%
    02:00 +1°C° 0 mm 3 mps 664 mmHg 50%
    03:00 +1°C° 0 mm 3 mps 664 mmHg 50%
    04:00 +1°C° 0 mm 3 mps 664 mmHg 49%
    05:00 +1°C° 0 mm 3 mps 664 mmHg 48%
    06:00 +2°C° 0 mm 3 mps 664 mmHg 47%
    07:00 +3°C° 0 mm 3 mps 663 mmHg 46%
    08:00 +4°C° 0 mm 3 mps 663 mmHg 45%
    09:00 +7°C° 0 mm 2 mps 663 mmHg 45%
    10:00 +8°C° 0 mm 2 mps 663 mmHg 45%
    11:00 +9°C° 0 mm 2 mps 663 mmHg 46%
    12:00 +10°C° 0 mm 2 mps 663 mmHg 46%
    13:00 +9°C° 0 mm 2 mps 662 mmHg 50%
    14:00 +10°C° 0 mm 1 mps 662 mmHg 55%
    15:00 +10°C° 0 mm 1 mps 662 mmHg 60%
    16:00 +8°C° 0 mm 2 mps 661 mmHg 64%
    17:00 +7°C° 0 mm 2 mps 661 mmHg 69%
    18:00 +6°C° 0 mm 2 mps 661 mmHg 74%
    19:00 +6°C° 0 mm 2 mps 661 mmHg 72%
    20:00 +6°C° 0 mm 2 mps 660 mmHg 70%
    21:00 +5°C° 0 mm 3 mps 660 mmHg 68%
    22:00 +4°C° 0 mm 3 mps 660 mmHg 69%
    23:00 +4°C° 0 mm 3 mps 660 mmHg 69%

    Tomorrow, 21 November, Wednesday

    Time Temperature Precipitation Wind Pressure Humidity
    00:00 +4°C° 0 mm 3 mps 660 mmHg 69%
    01:00 +4°C° 0 mm 3 mps 660 mmHg 70%
    02:00 +3°C° 0 mm 4 mps 660 mmHg 71%
    03:00 +3°C° 0 mm 4 mps 660 mmHg 72%
    04:00 +3°C° 0.2 mm 4 mps 660 mmHg 75%
    05:00 +3°C° 0.2 mm 3 mps 660 mmHg 77%
    06:00 +3°C° 0.2 mm 3 mps 660 mmHg 80%
    07:00 +3°C° 0 mm 3 mps 661 mmHg 79%
    08:00 +4°C° 0 mm 3 mps 661 mmHg 78%
    09:00 +4°C° 0 mm 3 mps 661 mmHg 77%
    10:00 +4°C° 0 mm 3 mps 661 mmHg 76%
    11:00 +4°C° 0 mm 3 mps 661 mmHg 75%
    12:00 +5°C° 0 mm 4 mps 661 mmHg 74%
    13:00 +4°C° 0.5 mm 4 mps 661 mmHg 78%
    14:00 +4°C° 0.5 mm 4 mps 661 mmHg 81%
    15:00 +3°C° 0.5 mm 4 mps 661 mmHg 84%
    16:00 +1°C° 0.6 mm 4 mps 661 mmHg 87%
    17:00 +2°C° 0.6 mm 3 mps 661 mmHg 90%
    18:00 +1°C° 0.6 mm 3 mps 661 mmHg 92%
    19:00 +1°C° 0.1 mm 3 mps 661 mmHg 92%
    20:00 +2°C° 0.1 mm 2 mps 661 mmHg 93%
    21:00 +2°C° 0.1 mm 2 mps 661 mmHg 93%
    22:00 +2°C° 0 mm 2 mps 661 mmHg 93%
    23:00 +1°C° 0 mm 2 mps 661 mmHg 93%

    Day after tomorrow, 22 November, Thursday

    Time Temperature Precipitation Wind Pressure Humidity
    00:00 +1°C° 0 mm 2 mps 661 mmHg 92%
    01:00 +1°C° 0 mm 2 mps 660 mmHg 92%
    02:00 +1°C° 0 mm 2 mps 660 mmHg 92%
    03:00 +1°C° 0 mm 2 mps 660 mmHg 91%
    04:00 +1°C° 0 mm 2 mps 660 mmHg 91%
    05:00 +1°C° 0 mm 2 mps 660 mmHg 91%
    06:00 +2°C° 0 mm 1 mps 660 mmHg 90%
    07:00 +2°C° 0 mm 1 mps 660 mmHg 88%
    08:00 +3°C° 0 mm 1 mps 661 mmHg 87%
    09:00 +3°C° 0 mm 1 mps 661 mmHg 85%
    10:00 +3°C° 0 mm 2 mps 661 mmHg 85%
    11:00 +3°C° 0 mm 2 mps 661 mmHg 85%
    12:00 +4°C° 0 mm 2 mps 661 mmHg 84%
    13:00 +4°C° 0 mm 2 mps 660 mmHg 86%
    14:00 +4°C° 0 mm 2 mps 660 mmHg 87%
    15:00 +3°C° 0 mm 2 mps 660 mmHg 89%
    16:00 +3°C° 0 mm 2 mps 660 mmHg 90%
    17:00 +2°C° 0 mm 2 mps 660 mmHg 91%
    18:00 +3°C° 0 mm 1 mps 660 mmHg 92%
    19:00 +3°C° 0 mm 1 mps 660 mmHg 91%
    20:00 +3°C° 0 mm 1 mps 660 mmHg 90%
    21:00 +3°C° 0 mm 1 mps 661 mmHg 88%
    22:00 +2°C° 0 mm 1 mps 661 mmHg 88%
    23:00 +2°C° 0 mm 1 mps 660 mmHg 87%

    23 November, Friday

    Time Temperature Precipitation Wind Pressure Humidity
    00:00 +2°C° 0 mm 1 mps 660 mmHg 87%
    01:00 +2°C° 0 mm 1 mps 660 mmHg 87%
    02:00 +2°C° 0 mm 1 mps 660 mmHg 86%
    03:00 +2°C° 0 mm 1 mps 660 mmHg 86%
    04:00 +2°C° 0 mm 1 mps 660 mmHg 86%
    05:00 +2°C° 0 mm 1 mps 660 mmHg 86%
    06:00 +2°C° 0 mm 1 mps 660 mmHg 85%
    07:00 +2°C° 0 mm 1 mps 660 mmHg 83%
    08:00 +3°C° 0 mm 1 mps 661 mmHg 81%
    09:00 +4°C° 0 mm 1 mps 661 mmHg 78%
    10:00 +5°C° 0 mm 1 mps 661 mmHg 77%
    11:00 +4°C° 0 mm 2 mps 661 mmHg 77%
    12:00 +5°C° 0 mm 2 mps 661 mmHg 76%
    13:00 +5°C° 0.1 mm 2 mps 661 mmHg 79%
    14:00 +4°C° 0.1 mm 2 mps 661 mmHg 82%
    15:00 +4°C° 0.1 mm 2 mps 661 mmHg 85%
    16:00 +3°C° 0.2 mm 2 mps 661 mmHg 87%
    17:00 +3°C° 0.2 mm 2 mps 662 mmHg 89%
    18:00 +2°C° 0.2 mm 2 mps 663 mmHg 91%
    19:00 +1°C° 0.2 mm 3 mps 663 mmHg 91%
    20:00 -1°C° 0.2 mm 4 mps 664 mmHg 91%
    21:00 -1°C° 0.2 mm 4 mps 665 mmHg 90%
    22:00 -2°C° 0 mm 4 mps 665 mmHg 90%
    23:00 -3°C° 0 mm 4 mps 665 mmHg 89%

    24 November, Saturday

    Time Temperature Precipitation Wind Pressure Humidity
    00:00 -3°C° 0 mm 4 mps 666 mmHg 89%
    01:00 -4°C° 0 mm 4 mps 666 mmHg 88%
    02:00 -4°C° 0 mm 4 mps 666 mmHg 88%
    03:00 -4°C° 0 mm 3 mps 667 mmHg 88%
    04:00 -5°C° 0 mm 3 mps 667 mmHg 87%
    05:00 -4°C° 0 mm 2 mps 668 mmHg 87%
    06:00 -4°C° 0 mm 2 mps 668 mmHg 87%
    07:00 -3°C° 0 mm 2 mps 669 mmHg 84%
    08:00 -2°C° 0 mm 2 mps 669 mmHg 81%
    09:00 -2°C° 0 mm 2 mps 670 mmHg 79%
    10:00 -1°C° 0 mm 2 mps 670 mmHg 78%
    11:00 +1°C° 0 mm 2 mps 670 mmHg 76%
    12:00 +2°C° 0 mm 2 mps 671 mmHg 75%
    13:00 +2°C° 0 mm 2 mps 671 mmHg 77%
    14:00 +1°C° 0 mm 3 mps 670 mmHg 78%
    15:00 0°C° 0 mm 3 mps 670 mmHg 80%
    16:00 0°C° 0 mm 3 mps 670 mmHg 81%
    17:00 -2°C° 0 mm 4 mps 670 mmHg 82%
    18:00 -3°C° 0 mm 4 mps 670 mmHg 83%
    19:00 -2°C° 0 mm 4 mps 670 mmHg 80%
    20:00 -2°C° 0 mm 4 mps 670 mmHg 77%
    21:00 -2°C° 0 mm 4 mps 669 mmHg 74%
    22:00 -2°C° 0 mm 4 mps 669 mmHg 72%
    23:00 -2°C° 0 mm 4 mps 669 mmHg 71%

    25 November, Sunday

    Time Temperature Precipitation Wind Pressure Humidity
    00:00 -2°C° 0 mm 4 mps 668 mmHg 69%
    01:00 -2°C° 0 mm 4 mps 668 mmHg 67%
    02:00 -2°C° 0 mm 4 mps 667 mmHg 66%
    03:00 -1°C° 0 mm 3 mps 667 mmHg 64%
    04:00 -1°C° 0 mm 3 mps 666 mmHg 63%
    05:00 0°C° 0 mm 3 mps 666 mmHg 62%
    06:00 0°C° 0 mm 3 mps 666 mmHg 61%
    07:00 +2°C° 0 mm 2 mps 665 mmHg 59%
    08:00 +3°C° 0 mm 2 mps 665 mmHg 56%
    09:00 +5°C° 0 mm 2 mps 665 mmHg 54%
    10:00 +6°C° 0 mm 2 mps 665 mmHg 52%
    11:00 +7°C° 0 mm 2 mps 664 mmHg 51%
    12:00 +9°C° 0 mm 1 mps 664 mmHg 50%
    13:00 +8°C° 0 mm 1 mps 664 mmHg 54%
    14:00 +8°C° 0 mm 1 mps 663 mmHg 58%
    15:00 +7°C° 0 mm 1 mps 663 mmHg 63%
    16:00 +6°C° 0 mm 1 mps 663 mmHg 65%
    17:00 +4°C° 0 mm 2 mps 662 mmHg 67%
    18:00 +3°C° 0 mm 2 mps 662 mmHg 69%
    19:00 +3°C° 0 mm 2 mps 662 mmHg 67%
    20:00 +3°C° 0 mm 2 mps 662 mmHg 65%
    21:00 +3°C° 0 mm 2 mps 662 mmHg 62%
    22:00 +2°C° 0 mm 2 mps 662 mmHg 61%
    23:00 +2°C° 0 mm 2 mps 661 mmHg 60%
    Show more